Latest Coastal Weather Observations for Smithton

IDT60701

Issued at 3:41 am EST Tuesday 26 May 2015 (issued every 10 minutes, with the page automatically refreshed every 10 minutes)

About coastal observations | Map of coastal stations | Coastal observations for TAS | Marine services | Other Formats
Station Details ID: 091292 Name: SMITHTON AERODROME Lat: -40.83 Lon: 145.08 Height: 7.5 m
Data from the previous 72 hours. | See also: Recent months at Smithton
Date/Time
EST
Temp

°C
Wind Pressure Rain
since 9am
mm
Weather Cloud Vis
km
Sea
Height
m
Swell
Dir
 
Speed
knots
Gust
knots
hPa Trend Height
m
Period
s
Dir
26/03:30am 5.7 SSW 5 6 1028.1 - 0.0 - - - - - - -
26/03:00am 5.6 SSW 4 5 1028.3 - 0.0 - - - - - - -
26/02:30am 6.0 SSW 1 3 1028.2 - 0.0 - - - - - - -
26/02:00am 5.1 SSW 1 5 1028.3 - 0.0 - - - - - - -
26/01:30am 5.3 CALM 0 0 1028.0 - 0.0 - - - - - - -
26/01:00am 6.8 SSW 1 3 1028.2 - 0.0 - - - - - - -
26/12:30am 6.7 SSW 5 7 1028.6 - 0.0 - - - - - - -
26/12:00am 6.5 SSW 5 6 1028.5 - 0.0 - - - - - - -
 
Date/Time
EST
Temp

°C
Wind Pressure Rain
since 9am
mm
Weather Cloud Vis
km
Sea
Height
m
Swell
Dir
 
Speed
knots
Gust
knots
hPa Trend Height
m
Period
s
Dir
25/11:30pm 6.0 NNW 4 4 1028.6 - 0.0 - - - - - - -
25/11:00pm 4.6 NNW 3 5 1028.8 - 0.0 - - - - - - -
25/10:30pm 4.5 NNW 4 5 1028.8 - 0.0 - - - - - - -
25/10:00pm 4.0 CALM 0 0 1029.0 - 0.0 - - - - - - -
25/09:30pm 4.2 NNW 3 4 1029.0 - 0.0 - - - - - - -
25/09:00pm 4.5 NNW 4 4 1028.9 - 0.0 - - - - - - -
25/08:30pm 4.9 CALM 0 0 1028.8 - 0.0 - - - - - - -
25/08:00pm 5.3 CALM 0 0 1028.8 - 0.0 - - - - - - -
25/07:30pm 7.2 CALM 0 0 1028.6 - 0.0 - - - - - - -
25/07:00pm 8.5 NNW 3 3 1028.5 - 0.0 - - - - - - -
25/06:30pm 7.8 NNW 4 5 1028.5 - 0.0 - - - - - - -
25/06:00pm 8.7 NNW 4 4 1028.2 - 0.0 - - - - - - -
25/05:30pm 10.4 NNW 5 6 1027.9 - 0.0 - - - - - - -
25/05:00pm 11.6 WNW 5 5 1027.8 - 0.0 - - - - - - -
25/04:30pm 12.8 WNW 5 6 1027.6 - 0.0 - - - - - - -
25/04:00pm 14.4 WNW 7 9 1027.5 - 0.0 - - - - - - -
25/03:30pm 15.3 W 8 13 1027.5 - 0.0 - - - - - - -
25/03:00pm 15.0 W 8 10 1027.5 - 0.0 - - - - - - -
25/02:30pm 14.8 W 8 10 1027.6 - 0.0 - - - - - - -
25/02:00pm 14.7 WNW 6 8 1027.8 - 0.0 - - - - - - -
25/01:30pm 14.3 WNW 9 12 1028.0 - 0.0 - - - - - - -
25/01:00pm 14.5 NW 8 11 1028.2 - 0.0 - - - - - - -
25/12:30pm 13.7 NNW 3 4 1028.5 - 0.0 - - - - - - -
25/12:00pm 13.4 NNW 4 5 1028.8 - 0.0 - - - - - - -
25/11:30am 13.9 NNW 5 7 1029.3 - 0.0 - - - - - - -
25/11:00am 13.1 NW 5 6 1029.6 - 0.0 - - - - - - -
25/10:30am 12.4 WSW 2 4 1029.8 - 0.0 - - - - - - -
25/10:00am 9.5 CALM 0 0 1029.7 - 0.0 - - - - - - -
25/09:30am 8.7 SSW 1 3 1029.7 - 0.0 - - - - - - -
25/09:00am 8.2 SSW 4 6 1029.7 - 0.0 - - - - - - -
25/08:30am 7.4 CALM 0 0 1029.6 - 0.0 - - - - - - -
25/08:00am 6.8 NNW 2 5 1029.6 - 0.0 - - - - - - -
25/07:30am 6.6 NNW 3 4 1029.3 - 0.0 - - - - - - -
25/07:00am 8.0 WNW 5 10 1029.1 - 0.0 - - - - - - -
25/06:30am 7.8 SW 1 3 1029.1 - 0.0 - - - - - - -
25/06:00am 7.8 CALM 0 2 1029.1 - 0.0 - - - - - - -
25/05:30am 7.7 CALM 0 0 1028.9 - 0.0 - - - - - - -
25/05:00am 8.1 CALM 0 1 1028.9 - 0.0 - - - - - - -
25/04:30am 8.2 SW 3 4 1028.9 - 0.0 - - - - - - -
25/04:00am 8.2 SW 1 4 1029.0 - 0.0 - - - - - - -
25/03:30am 8.1 CALM 0 0 1029.0 - 0.0 - - - - - - -
25/03:00am 8.2 WSW 3 6 1029.2 - 0.0 - - - - - - -
25/02:30am 8.3 CALM 0 1 1029.6 - 0.0 - - - - - - -
25/02:00am 8.2 CALM 0 0 1029.6 - 0.0 - - - - - - -
25/01:30am 8.2 W 4 5 1029.5 - 0.0 - - - - - - -
25/01:00am 8.3 W 1 3 1029.8 - 0.0 - - - - - - -
25/12:30am 8.4 CALM 0 0 1029.9 - 0.0 - - - - - - -
25/12:00am 8.4 W 1 4 1030.1 - 0.0 - - - - - - -
 
Date/Time
EST
Temp

°C
Wind Pressure Rain
since 9am
mm
Weather Cloud Vis
km
Sea
Height
m
Swell
Dir
 
Speed
knots
Gust
knots
hPa Trend Height
m
Period
s
Dir
24/11:30pm 8.6 W 3 4 1029.9 - 0.0 - - - - - - -
24/11:00pm 8.7 W 3 4 1029.9 - 0.0 - - - - - - -
24/10:30pm 8.9 CALM 0 0 1030.1 - 0.0 - - - - - - -
24/10:00pm 9.2 CALM 0 3 1030.2 - 0.0 - - - - - - -
24/09:30pm 9.2 WNW 3 7 1030.3 - 0.0 - - - - - - -
24/09:00pm 9.2 WNW 4 5 1030.3 - 0.0 - - - - - - -
24/08:30pm 9.2 WNW 6 7 1030.1 - 0.0 - - - - - - -
24/08:00pm 8.7 NW 4 5 1030.1 - 0.0 - - - - - - -
24/07:30pm 8.8 NW 4 6 1030.0 - 0.0 - - - - - - -
24/07:00pm 8.4 W 2 5 1029.8 - 0.0 - - - - - - -
24/06:30pm 8.9 CALM 0 0 1029.8 - 0.0 - - - - - - -
24/06:00pm 8.9 WNW 3 4 1029.8 - 0.0 - - - - - - -
24/05:30pm 8.9 WNW 5 6 1029.6 - 0.0 - - - - - - -
24/05:00pm 9.7 W 5 7 1029.6 - 0.0 - - - - - - -
24/04:30pm 9.3 W 8 9 1029.6 - 0.0 - - - - - - -
24/04:00pm 11.1 W 8 11 1029.4 - 0.0 - - - - - - -
24/03:30pm 11.7 W 8 9 1029.3 - 0.0 - - - - - - -
24/03:00pm 12.1 W 6 8 1029.1 - 0.0 - - - - - - -
24/02:30pm 11.7 W 6 8 1029.2 - 0.0 - - - - - - -
24/02:00pm 11.7 W 3 5 1029.3 - 0.0 - - - - - - -
24/01:30pm 12.1 WSW 5 7 1029.6 - 0.0 - - - - - - -
24/01:00pm 11.8 WSW 7 9 1029.8 - 0.0 - - - - - - -
24/12:30pm 11.5 WSW 9 11 1030.0 - 0.0 - - - - - - -
24/12:00pm 10.6 SSW 4 6 1030.4 - 0.0 - - - - - - -
24/11:30am 10.2 SSW 4 6 1030.7 - 0.0 - - - - - - -
24/11:00am 9.3 S 5 7 1031.0 - 0.0 - - - - - - -
24/10:30am 8.2 S 4 7 1031.1 - 0.0 - - - - - - -
24/10:00am 7.6 S 5 7 1031.1 - 0.0 - - - - - - -
24/09:30am 6.5 S 4 5 1031.1 - 0.0 - - - - - - -
24/09:00am 4.5 S 5 5 1031.0 - 0.2 - - - - - - -
24/08:30am 2.6 CALM 0 0 1030.9 - 0.2 - - - - - - -
24/08:00am 2.7 S 4 5 1030.6 - 0.2 - - - - - - -
24/07:30am 2.7 SSW 4 6 1030.3 - 0.2 - - - - - - -
24/07:00am 4.0 SSW 6 7 1030.1 - 0.2 - - - - - - -
24/06:30am 5.6 SW 6 7 1030.0 - 0.2 - - - - - - -
24/06:00am 5.1 SSW 8 12 1029.9 - 0.0 - - - - - - -
24/05:30am 4.9 S 6 7 1029.9 - 0.0 - - - - - - -
24/05:00am 4.2 SSW 6 8 1030.0 - 0.0 - - - - - - -
24/04:30am 2.2 SSW 7 9 1029.8 - 0.0 - - - - - - -
24/04:00am 1.1 WSW 5 7 1029.8 - 0.0 - - - - - - -
24/03:30am 0.0 W 3 6 1029.8 - 0.0 - - - - - - -
24/03:00am -0.2 CALM 0 0 1029.7 - 0.0 - - - - - - -
24/02:30am -0.3 SW 2 3 1029.9 - 0.0 - - - - - - -
24/02:00am 1.1 SW 3 5 1029.9 - 0.0 - - - - - - -
24/01:30am 2.5 SW 4 5 1029.8 - 0.0 - - - - - - -
24/01:00am 2.8 SW 3 4 1030.1 - 0.0 - - - - - - -
24/12:30am 2.5 SW 3 4 1030.3 - 0.0 - - - - - - -
24/12:00am 3.2 SW 4 5 1030.5 - 0.0 - - - - - - -
 
Date/Time
EST
Temp

°C
Wind Pressure Rain
since 9am
mm
Weather Cloud Vis
km
Sea
Height
m
Swell
Dir
 
Speed
knots
Gust
knots
hPa Trend Height
m
Period
s
Dir
23/11:30pm 3.2 WSW 8 9 1030.3 - 0.0 - - - - - - -
23/11:00pm 3.0 WSW 7 8 1030.3 - 0.0 - - - - - - -
23/10:30pm 3.4 WSW 5 6 1030.5 - 0.0 - - - - - - -
23/10:00pm 3.3 WSW 5 6 1030.7 - 0.0 - - - - - - -
23/09:30pm 3.2 WSW 7 8 1030.7 - 0.0 - - - - - - -
23/09:00pm 3.9 W 7 8 1030.7 - 0.0 - - - - - - -
23/08:30pm 5.1 WSW 8 9 1030.6 - 0.0 - - - - - - -
23/08:00pm 5.7 WSW 8 9 1030.4 - 0.0 - - - - - - -
23/07:30pm 6.2 WSW 8 9 1030.3 - 0.0 - - - - - - -
23/07:00pm 6.2 SW 7 8 1030.2 - 0.0 - - - - - - -
23/06:30pm 7.5 SW 7 9 1030.0 - 0.0 - - - - - - -
23/06:00pm 8.5 SW 10 12 1029.8 - 0.0 - - - - - - -
23/05:30pm 9.3 SW 12 15 1029.7 - 0.0 - - - - - - -
23/05:00pm 10.1 SW 14 19 1029.7 - 0.0 - - - - - - -
23/04:30pm 10.5 SW 12 15 1029.8 - 0.0 - - - - - - -
23/04:00pm 11.6 SW 14 19 1029.7 - 0.0 - - - - - - -
23/03:30pm 11.5 SW 13 17 1029.7 - 0.0 - - - - - - -
23/03:00pm 11.6 SW 17 21 1029.7 - 0.0 - - - - - - -
23/02:30pm 12.5 SW 15 22 1029.5 - 0.0 - - - - - - -
23/02:00pm 12.6 WSW 16 24 1029.7 - 0.0 - - - - - - -
23/01:30pm 12.1 SW 17 22 1029.8 - 0.0 - - - - - - -
23/01:00pm 13.2 WSW 15 20 1030.0 - 0.0 - - - - - - -
23/12:30pm 12.4 SW 16 20 1030.2 - 0.0 - - - - - - -
23/12:00pm 12.5 SW 16 23 1030.5 - 0.0 - - - - - - -
23/11:30am 11.9 SSW 17 23 1030.8 - 0.0 - - - - - - -
23/11:00am 12.1 SSW 14 19 1031.0 - 0.0 - - - - - - -
23/10:30am 11.8 SSW 15 19 1031.0 - 0.0 - - - - - - -
23/10:00am 11.1 SW 15 19 1031.2 - 0.0 - - - - - - -
23/09:30am 10.8 SW 14 20 1031.2 - 0.0 - - - - - - -
23/09:00am 10.3 SW 12 16 1031.3 - 0.0 - - - - - - -
23/08:30am 9.6 SW 10 13 1031.0 - 0.0 - - - - - - -
23/08:00am 8.3 SW 10 13 1030.8 - 0.0 - - - - - - -
23/07:30am 8.1 SW 10 13 1030.4 - 0.0 - - - - - - -
23/07:00am 8.2 SW 12 17 1030.2 - 0.0 - - - - - - -
23/06:30am 8.0 SSW 12 16 1029.9 - 0.0 - - - - - - -
23/06:00am 8.3 SW 13 19 1029.7 - 0.0 - - - - - - -
23/05:30am 8.4 SW 10 13 1029.7 - 0.0 - - - - - - -
23/05:00am 8.0 SW 10 14 1029.6 - 0.0 - - - - - - -
23/04:30am 8.3 SW 11 14 1029.4 - 0.0 - - - - - - -
23/04:00am 9.0 SW 12 15 1029.5 - 0.0 - - - - - - -

Other Formats:

Comma delimited format used in spreadsheet applications
http://www.bom.gov.au/fwo/IDT60701/IDT60701.94953.axf

JavaScript Object Notation format (JSON) in row-major order
http://www.bom.gov.au/fwo/IDT60701/IDT60701.94953.json